SPECI KHSE 200014Z AUTO 02011G19KT 340V050 3SM RA BR FEW008 BKN032 OVC070 08/08 A3004 RMK AO2 PRESFR P0007 TSNO 
METAR KHSE 192351Z AUTO 01010G16KT 4SM RA BR FEW012 SCT017 OVC065 08/08 A3007 RMK AO2 PRESRR SLP183 P0007 60049 T00780078 10078 20067 55002 TSNO 
METAR KHSE 192351Z AUTO 01010G16KT 4SM RA BR FEW012 SCT017 OVC065 08/08 A3007 RMK AO2 PRESRR SLP183 P0007 60049 T00780078 10078 20067 55002 TSNO 
METAR KHSE 192351Z AUTO 01010G16KT 4SM RA BR FEW012 SCT017 OVC065 08/08 A3007 RMK AO2 PRESRR SLP183 P0007 60049 T00780078 10078 20067 55002 TSNO 
METAR KHSE 192351Z AUTO 01010G16KT 4SM RA BR FEW012 SCT017 OVC065 08/08 A3007 RMK AO2 PRESRR SLP183 P0007 60049 T00780078 10078 20067 55002 TSNO 
METAR KHSE 192251Z AUTO 03012G17KT 5SM -RA BR BKN015 OVC060 08/08 A3004 RMK AO2 SLP173 P0006 T00780078 TSNO 
METAR KHSE 192251Z AUTO 03012G17KT 5SM -RA BR BKN015 OVC060 08/08 A3004 RMK AO2 SLP173 P0006 T00780078 TSNO 
METAR KHSE 192251Z AUTO 03012G17KT 5SM -RA BR BKN015 OVC060 08/08 A3004 RMK AO2 SLP173 P0006 T00780078 TSNO 
METAR KHSE 192251Z AUTO 03012G17KT 5SM -RA BR BKN015 OVC060 08/08 A3004 RMK AO2 SLP173 P0006 T00780078 TSNO 
SPECI KHSE 192201Z AUTO 03010G16KT 5SM -RA BR FEW007 SCT015 OVC055 08/08 A3005 RMK AO2 P0000 TSNO 
SPECI KHSE 192201Z AUTO 03010G16KT 5SM -RA BR FEW007 SCT015 OVC055 08/08 A3005 RMK AO2 P0000 TSNO 
SPECI KHSE 192201Z AUTO 03010G16KT 5SM -RA BR FEW007 SCT015 OVC055 08/08 A3005 RMK AO2 P0000 TSNO 
SPECI KHSE 192201Z AUTO 03010G16KT 5SM -RA BR FEW007 SCT015 OVC055 08/08 A3005 RMK AO2 P0000 TSNO 
SPECI KHSE 192201Z AUTO 03010G16KT 5SM -RA BR FEW007 SCT015 OVC055 08/08 A3005 RMK AO2 P0000 TSNO 
SPECI KHSE 192201Z AUTO 03010G16KT 5SM -RA BR FEW007 SCT015 OVC055 08/08 A3005 RMK AO2 P0000 TSNO 
METAR KHSE 192151Z AUTO 01011G22KT 6SM -RA BR SCT009 BKN028 OVC055 08/08 A3005 RMK AO2 SLP174 P0010 T00780078 TSNO 
METAR KHSE 192151Z AUTO 01011G22KT 6SM -RA BR SCT009 BKN028 OVC055 08/08 A3005 RMK AO2 SLP174 P0010 T00780078 TSNO 
METAR KHSE 192151Z AUTO 01011G22KT 6SM -RA BR SCT009 BKN028 OVC055 08/08 A3005 RMK AO2 SLP174 P0010 T00780078 TSNO 
METAR KHSE 192151Z AUTO 01011G22KT 6SM -RA BR SCT009 BKN028 OVC055 08/08 A3005 RMK AO2 SLP174 P0010 T00780078 TSNO 
SPECI KHSE 192142Z AUTO 02010G19KT 3SM -RA BR SCT009 BKN028 OVC055 08/08 A3003 RMK AO2 PRESFR P0010 TSNO 
SPECI KHSE 192142Z AUTO 02010G19KT 3SM -RA BR SCT009 BKN028 OVC055 08/08 A3003 RMK AO2 PRESFR P0010 TSNO 
SPECI KHSE 192136Z AUTO 02008G18KT 350V060 2SM -RA BR BKN009 BKN026 OVC048 08/08 A3006 RMK AO2 P0010 TSNO 
SPECI KHSE 192136Z AUTO 02008G18KT 350V060 2SM -RA BR BKN009 BKN026 OVC048 08/08 A3006 RMK AO2 P0010 TSNO 
SPECI KHSE 192126Z AUTO 02013G20KT 1 1/2SM RA BR SCT009 BKN014 OVC026 08/08 A3006 RMK AO2 P0009 TSNO 
SPECI KHSE 192126Z AUTO 02013G20KT 1 1/2SM RA BR SCT009 BKN014 OVC026 08/08 A3006 RMK AO2 P0009 TSNO 
SPECI KHSE 192107Z AUTO 01011G17KT 330V040 1 1/4SM RA BR BKN009 BKN018 OVC046 08/08 A3010 RMK AO2 P0004 TSNO 
SPECI KHSE 192107Z AUTO 01011G17KT 330V040 1 1/4SM RA BR BKN009 BKN018 OVC046 08/08 A3010 RMK AO2 P0004 TSNO 
SPECI KHSE 192107Z AUTO 01011G17KT 330V040 1 1/4SM RA BR BKN009 BKN018 OVC046 08/08 A3010 RMK AO2 P0004 TSNO 
SPECI KHSE 192107Z AUTO 01011G17KT 330V040 1 1/4SM RA BR BKN009 BKN018 OVC046 08/08 A3010 RMK AO2 P0004 TSNO 
SPECI KHSE 192058Z AUTO 01011KT 1 1/2SM RA BR BKN009 BKN020 OVC049 08/08 A3010 RMK AO2 PRESRR P0001 TSNO 
SPECI KHSE 192058Z AUTO 01011KT 1 1/2SM RA BR BKN009 BKN020 OVC049 08/08 A3010 RMK AO2 PRESRR P0001 TSNO 
SPECI KHSE 192058Z AUTO 01011KT 1 1/2SM RA BR BKN009 BKN020 OVC049 08/08 A3010 RMK AO2 PRESRR P0001 TSNO 
SPECI KHSE 192058Z AUTO 01011KT 1 1/2SM RA BR BKN009 BKN020 OVC049 08/08 A3010 RMK AO2 PRESRR P0001 TSNO 
METAR KHSE 192051Z AUTO 02010G18KT 1 1/4SM -RA BR BKN009 BKN020 OVC060 08/08 A3008 RMK AO2 SLP185 P0011 60026 T00780078 55020 TSNO 
METAR KHSE 192051Z AUTO 02010G18KT 1 1/4SM -RA BR BKN009 BKN020 OVC060 08/08 A3008 RMK AO2 SLP185 P0011 60026 T00780078 55020 TSNO 
SPECI KHSE 192044Z AUTO 03007G17KT 350V090 1 1/4SM RA BR BKN009 BKN014 OVC021 08/08 A3007 RMK AO2 P0009 TSNO 
SPECI KHSE 192044Z AUTO 03007G17KT 350V090 1 1/4SM RA BR BKN009 BKN014 OVC021 08/08 A3007 RMK AO2 P0009 TSNO 
SPECI KHSE 192031Z AUTO 02011G18KT 1 1/2SM RA BR BKN009 BKN019 OVC034 08/08 A3006 RMK AO2 P0006 TSNO 
SPECI KHSE 192031Z AUTO 02011G18KT 1 1/2SM RA BR BKN009 BKN019 OVC034 08/08 A3006 RMK AO2 P0006 TSNO 
SPECI KHSE 192020Z AUTO 02013G18KT 1 1/2SM RA BR SCT007 BKN011 OVC027 07/07 A3006 RMK AO2 P0004 TSNO 
SPECI KHSE 192020Z AUTO 02013G18KT 1 1/2SM RA BR SCT007 BKN011 OVC027 07/07 A3006 RMK AO2 P0004 TSNO 
SPECI KHSE 192009Z AUTO 02012G19KT 1 1/2SM -RA BR SCT007 BKN030 OVC060 07/07 A3005 RMK AO2 P0002 TSNO 
SPECI KHSE 192009Z AUTO 02012G19KT 1 1/2SM -RA BR SCT007 BKN030 OVC060 07/07 A3005 RMK AO2 P0002 TSNO 
METAR KHSE 191951Z AUTO 02011G17KT 340V050 1 1/2SM -RA BR FEW009 BKN028 OVC060 07/07 A3006 RMK AO2 PRESFR SLP180 P0008 T00670067 TSNO 
METAR KHSE 191951Z AUTO 02011G17KT 340V050 1 1/2SM -RA BR FEW009 BKN028 OVC060 07/07 A3006 RMK AO2 PRESFR SLP180 P0008 T00670067 TSNO 
SPECI KHSE 191930Z AUTO 02010G15KT 1SM RA BR SCT009 SCT015 OVC026 07/07 A3009 RMK AO2 P0006 TSNO 
SPECI KHSE 191930Z AUTO 02010G15KT 1SM RA BR SCT009 SCT015 OVC026 07/07 A3009 RMK AO2 P0006 TSNO 
SPECI KHSE 191930Z AUTO 02010G15KT 1SM RA BR SCT009 SCT015 OVC026 07/07 A3009 RMK AO2 P0006 TSNO 
SPECI KHSE 191930Z AUTO 02010G15KT 1SM RA BR SCT009 SCT015 OVC026 07/07 A3009 RMK AO2 P0006 TSNO 
SPECI KHSE 191913Z AUTO 02011G16KT 1 1/2SM -RA BR SCT009 BKN028 OVC046 07/07 A3011 RMK AO2 P0003 TSNO 
SPECI KHSE 191913Z AUTO 02011G16KT 1 1/2SM -RA BR SCT009 BKN028 OVC046 07/07 A3011 RMK AO2 P0003 TSNO 
SPECI KHSE 191901Z AUTO 02008G16KT 360V060 1SM RA BR SCT009 BKN026 OVC034 07/07 A3011 RMK AO2 P0002 TSNO 
SPECI KHSE 191901Z AUTO 02008G16KT 360V060 1SM RA BR SCT009 BKN026 OVC034 07/07 A3011 RMK AO2 P0002 TSNO 
METAR KHSE 191851Z AUTO 01010G19KT 1 3/4SM -RA BR SCT009 BKN021 OVC032 07/07 A3012 RMK AO2 SLP198 P0007 T00670067 TSNO 
METAR KHSE 191851Z AUTO 01010G19KT 1 3/4SM -RA BR SCT009 BKN021 OVC032 07/07 A3012 RMK AO2 SLP198 P0007 T00670067 TSNO 
METAR KHSE 191851Z AUTO 01010G19KT 1 3/4SM -RA BR SCT009 BKN021 OVC032 07/07 A3012 RMK AO2 SLP198 P0007 T00670067 TSNO 
METAR KHSE 191851Z AUTO 01010G19KT 1 3/4SM -RA BR SCT009 BKN021 OVC032 07/07 A3012 RMK AO2 SLP198 P0007 T00670067 TSNO 
SPECI KHSE 191835Z AUTO 01010G15KT 1 1/4SM -RA BR FEW009 BKN021 OVC033 07/07 A3011 RMK AO2 P0005 TSNO 
SPECI KHSE 191835Z AUTO 01010G15KT 1 1/4SM -RA BR FEW009 BKN021 OVC033 07/07 A3011 RMK AO2 P0005 TSNO 
SPECI KHSE 191828Z AUTO 02009G15KT 330V070 1 3/4SM -RA BR FEW007 BKN013 OVC033 07/07 A3011 RMK AO2 P0004 TSNO 
SPECI KHSE 191828Z AUTO 02009G15KT 330V070 1 3/4SM -RA BR FEW007 BKN013 OVC033 07/07 A3011 RMK AO2 P0004 TSNO 
SPECI KHSE 191820Z AUTO 02008G15KT 300V060 2SM -RA BR FEW009 SCT023 OVC033 07/07 A3012 RMK AO2 P0004 TSNO 
SPECI KHSE 191820Z AUTO 02008G15KT 300V060 2SM -RA BR FEW009 SCT023 OVC033 07/07 A3012 RMK AO2 P0004 TSNO 
SPECI KHSE 191808Z AUTO 02009KT 1SM RA BR SCT009 BKN022 OVC035 07/07 A3012 RMK AO2 P0003 TSNO 
SPECI KHSE 191808Z AUTO 02009KT 1SM RA BR SCT009 BKN022 OVC035 07/07 A3012 RMK AO2 P0003 TSNO 
SPECI KHSE 191756Z AUTO 01010KT 340V060 1 1/2SM -RA BR SCT009 BKN024 OVC037 07/07 A3014 RMK AO2 P0000 TSNO 
SPECI KHSE 191756Z AUTO 01010KT 340V060 1 1/2SM -RA BR SCT009 BKN024 OVC037 07/07 A3014 RMK AO2 P0000 TSNO 
SPECI KHSE 191756Z AUTO 01010KT 340V060 1 1/2SM -RA BR SCT009 BKN024 OVC037 07/07 A3014 RMK AO2 P0000 TSNO 
SPECI KHSE 191756Z AUTO 01010KT 340V060 1 1/2SM -RA BR SCT009 BKN024 OVC037 07/07 A3014 RMK AO2 P0000 TSNO 
METAR KHSE 191751Z AUTO 01008G14KT 330V050 1SM RA BR FEW011 BKN024 OVC039 07/07 A3014 RMK AO2 SLP205 P0007 60015 T00670067 10078 20061 55014 TSNO 
METAR KHSE 191751Z AUTO 01008G14KT 330V050 1SM RA BR FEW011 BKN024 OVC039 07/07 A3014 RMK AO2 SLP205 P0007 60015 T00670067 10078 20061 55014 TSNO 
SPECI KHSE 191742Z AUTO 02009G14KT 1SM RA BR FEW011 BKN026 OVC039 07/07 A3012 RMK AO2 P0005 TSNO 
SPECI KHSE 191742Z AUTO 02009G14KT 1SM RA BR FEW011 BKN026 OVC039 07/07 A3012 RMK AO2 P0005 TSNO 
SPECI KHSE 191733Z AUTO 01010G14KT 1 3/4SM -RA BR FEW013 OVC041 07/07 A3014 RMK AO2 P0002 TSNO 
SPECI KHSE 191733Z AUTO 01010G14KT 1 3/4SM -RA BR FEW013 OVC041 07/07 A3014 RMK AO2 P0002 TSNO 
SPECI KHSE 191708Z AUTO 03007KT 360V060 4SM -RA BR FEW017 BKN032 OVC044 06/06 A3013 RMK AO2 P0000 TSNO 
SPECI KHSE 191708Z AUTO 03007KT 360V060 4SM -RA BR FEW017 BKN032 OVC044 06/06 A3013 RMK AO2 P0000 TSNO 
SPECI KHSE 191658Z AUTO 02009G14KT 2 1/2SM -RA BR SCT017 BKN030 OVC040 06/06 A3013 RMK AO2 P0000 TSNO 
SPECI KHSE 191658Z AUTO 02009G14KT 2 1/2SM -RA BR SCT017 BKN030 OVC040 06/06 A3013 RMK AO2 P0000 TSNO 
METAR KHSE 191651Z AUTO 03007G14KT 360V070 1 3/4SM -RA BR FEW017 BKN026 OVC040 06/06 A3014 RMK AO2 PRESFR SLP204 P0003 T00610061 TSNO 
METAR KHSE 191651Z AUTO 03007G14KT 360V070 1 3/4SM -RA BR FEW017 BKN026 OVC040 06/06 A3014 RMK AO2 PRESFR SLP204 P0003 T00610061 TSNO 
SPECI KHSE 191636Z AUTO 01008KT 330V120 1 3/4SM -RA BR OVC040 07/06 A3015 RMK AO2 P0001 TSNO 
SPECI KHSE 191636Z AUTO 01008KT 330V120 1 3/4SM -RA BR OVC040 07/06 A3015 RMK AO2 P0001 TSNO 
METAR KHSE 191551Z AUTO 02008KT 4SM -RA BR OVC042 07/06 A3017 RMK AO2 SLP215 P0001 T00720061 TSNO 
METAR KHSE 191551Z AUTO 02008KT 4SM -RA BR OVC042 07/06 A3017 RMK AO2 SLP215 P0001 T00720061 TSNO 
METAR KHSE 191551Z AUTO 02008KT 4SM -RA BR OVC042 07/06 A3017 RMK AO2 SLP215 P0001 T00720061 TSNO 
METAR KHSE 191551Z AUTO 02008KT 4SM -RA BR OVC042 07/06 A3017 RMK AO2 SLP215 P0001 T00720061 TSNO 
METAR KHSE 191451Z AUTO 03008KT 7SM -RA BKN046 OVC065 07/04 A3018 RMK AO2 SLP219 P0001 60004 T00670044 58005 TSNO 
METAR KHSE 191451Z AUTO 03008KT 7SM -RA BKN046 OVC065 07/04 A3018 RMK AO2 SLP219 P0001 60004 T00670044 58005 TSNO 
METAR KHSE 191451Z AUTO 03008KT 7SM -RA BKN046 OVC065 07/04 A3018 RMK AO2 SLP219 P0001 60004 T00670044 58005 TSNO 
METAR KHSE 191451Z AUTO 03008KT 7SM -RA BKN046 OVC065 07/04 A3018 RMK AO2 SLP219 P0001 60004 T00670044 58005 TSNO 
METAR KHSE 191351Z AUTO VRB06KT 5SM -RA BR OVC046 07/06 A3019 RMK AO2 RAB11 SLP223 P0002 T00720056 TSNO 
METAR KHSE 191351Z AUTO VRB06KT 5SM -RA BR OVC046 07/06 A3019 RMK AO2 RAB11 SLP223 P0002 T00720056 TSNO 
METAR KHSE 191351Z AUTO VRB06KT 5SM -RA BR OVC046 07/06 A3019 RMK AO2 RAB11 SLP223 P0002 T00720056 TSNO 
METAR KHSE 191351Z AUTO VRB06KT 5SM -RA BR OVC046 07/06 A3019 RMK AO2 RAB11 SLP223 P0002 T00720056 TSNO 
METAR KHSE 191251Z AUTO 02007KT 9SM OVC048 07/03 A3018 RMK AO2 RAE38 SLP219 P0001 T00720028 TSNO 
METAR KHSE 191251Z AUTO 02007KT 9SM OVC048 07/03 A3018 RMK AO2 RAE38 SLP219 P0001 T00720028 TSNO 
METAR KHSE 191251Z AUTO 02007KT 9SM OVC048 07/03 A3018 RMK AO2 RAE38 SLP219 P0001 T00720028 TSNO